This is the latest recevied weather packets stored in our database for station/object OE6ATD-13. If no packets are shown the sender has not sent any weather packets the latest 10 day(s).
| Time | Temp. | Humidity | Pressure | Rain* | Wind** | Luminosity | Snow |
|---|---|---|---|---|---|---|---|
| 1778081723 | 20.56° C | 55% | 1008.3 hPa | 0 mm | - | 148 W/m² | - |
| 1778081120 | 21.11° C | 54% | 1008.3 hPa | 0 mm | - | 191 W/m² | - |
| 1778080516 | 21.11° C | 53% | 1008.3 hPa | 0 mm | - | 127 W/m² | - |
| 1778079926 | 20.56° C | 55% | 1008.4 hPa | 0 mm | - | 164 W/m² | - |
| 1778079322 | 20.56° C | 54% | 1008.2 hPa | 0 mm | - | 167 W/m² | - |
| 1778078717 | 20.56° C | 54% | 1008.3 hPa | 0 mm | - | 141 W/m² | - |
| 1778078129 | 20.56° C | 53% | 1008.3 hPa | 0 mm | - | 109 W/m² | - |
| 1778077524 | 20.56° C | 53% | 1008.5 hPa | 0 mm | - | 152 W/m² | - |
| 1778076920 | 20.56° C | 52% | 1008.4 hPa | 0 mm | - | 125 W/m² | - |
| 1778076316 | 21.67° C | 50% | 1008.5 hPa | 0 mm | - | 134 W/m² | - |
| 1778075727 | 22.22° C | 47% | 1008.5 hPa | 0 mm | - | 280 W/m² | - |
| 1778075121 | 22.22° C | 45% | 1008.4 hPa | 0 mm | - | 330 W/m² | - |
| 1778074517 | 22.78° C | 44% | 1008.4 hPa | 0 mm | - | 219 W/m² | - |
| 1778073928 | 22.78° C | 43% | 1008.3 hPa | 0 mm | - | 428 W/m² | - |
| 1778073323 | 23.33° C | 42% | 1008.4 hPa | 0 mm | - | 642 W/m² | - |
| 1778072720 | 23.89° C | 42% | 1008.4 hPa | 0 mm | - | 718 W/m² | - |
| 1778072115 | 23.33° C | 42% | 1008.4 hPa | 0 mm | - | 684 W/m² | - |
| 1778071525 | 23.89° C | 42% | 1008.5 hPa | 0 mm | - | 764 W/m² | - |
| 1778070921 | 23.89° C | 41% | 1008.5 hPa | 0 mm | - | 794 W/m² | - |
| 1778070316 | 23.89° C | 42% | 1008.5 hPa | 0 mm | - | 824 W/m² | - |
| 1778069727 | 23.89° C | 40% | 1008.6 hPa | 0 mm | - | 778 W/m² | - |
| 1778069123 | 24.44° C | 40% | 1008.7 hPa | 0 mm | - | 805 W/m² | - |
| 1778068519 | 24.44° C | 41% | 1008.6 hPa | 0 mm | - | 886 W/m² | - |
| 1778067930 | 23.33° C | 42% | 1008.6 hPa | 0 mm | - | 820 W/m² | - |
| 1778067326 | 22.78° C | 44% | 1008.5 hPa | 0 mm | - | 902 W/m² | - |
* Rain latest hour (hover to see other rain measurements)
** Current wind speed in m/s (hover to see current wind gust speed)